Т/Х сензор Анатолий Габрово, 30.01.2022 Measurements

Back to Overview

Timestamp Temperature Humidity
5/4/2026 5:46:29 PM 28,1 C 29.0%
5/4/2026 5:39:26 PM 27,9 C 29.0%
5/4/2026 5:32:23 PM 27,2 C 30.0%
5/4/2026 5:25:21 PM 26,6 C 30.0%
5/4/2026 5:18:20 PM 26,6 C 30.0%
5/4/2026 5:11:16 PM 26,4 C 30.0%
5/4/2026 5:04:15 PM 26,6 C 30.0%
5/4/2026 4:57:12 PM 26,7 C 29.0%
5/4/2026 4:50:16 PM 26,9 C 29.0%
5/4/2026 4:43:06 PM 27,0 C 29.0%
5/4/2026 4:36:03 PM 26,9 C 29.0%
5/4/2026 4:29:01 PM 26,8 C 30.0%
5/4/2026 4:21:57 PM 26,4 C 30.0%
5/4/2026 4:15:01 PM 26,0 C 30.0%
5/4/2026 4:07:55 PM 25,9 C 30.0%
5/4/2026 4:00:52 PM 25,8 C 30.0%
5/4/2026 3:53:50 PM 25,5 C 30.0%
5/4/2026 3:46:47 PM 25,2 C 30.0%
5/4/2026 3:39:45 PM 24,8 C 30.0%
5/4/2026 3:32:49 PM 24,5 C 30.0%
5/4/2026 3:25:42 PM 24,2 C 31.0%
5/4/2026 3:18:46 PM 23,9 C 31.0%
5/4/2026 3:11:37 PM 23,7 C 31.0%
5/4/2026 3:04:34 PM 23,3 C 31.0%
5/4/2026 2:57:32 PM 22,8 C 32.0%
5/4/2026 2:50:29 PM 22,5 C 31.0%
5/4/2026 2:43:27 PM 22,5 C 31.0%
5/4/2026 2:36:26 PM 22,6 C 31.0%
5/4/2026 2:29:21 PM 22,7 C 31.0%
5/4/2026 2:22:19 PM 22,7 C 31.0%
5/4/2026 2:15:17 PM 22,7 C 31.0%
5/4/2026 2:08:15 PM 22,7 C 30.0%
5/4/2026 2:01:12 PM 22,8 C 30.0%
5/4/2026 1:54:10 PM 22,8 C 30.0%
5/4/2026 1:47:07 PM 22,8 C 30.0%
5/4/2026 1:40:05 PM 22,6 C 30.0%
5/4/2026 1:33:02 PM 22,1 C 30.0%
5/4/2026 1:26:01 PM 22,1 C 30.0%
5/4/2026 1:18:56 PM 22,3 C 30.0%
5/4/2026 1:12:00 PM 22,4 C 30.0%
5/4/2026 1:04:52 PM 22,6 C 30.0%
5/4/2026 12:57:50 PM 22,8 C 29.0%
5/4/2026 12:50:54 PM 23,1 C 29.0%
5/4/2026 12:43:45 PM 23,2 C 29.0%
5/4/2026 12:36:44 PM 23,4 C 29.0%
5/4/2026 12:29:40 PM 23,6 C 29.0%
5/4/2026 12:22:38 PM 23,7 C 29.0%
5/4/2026 12:15:34 PM 23,9 C 28.0%
5/4/2026 12:08:31 PM 24,1 C 28.0%
5/4/2026 12:01:28 PM 24,2 C 28.0%
5/4/2026 11:54:24 AM 24,3 C 28.0%
5/4/2026 11:47:22 AM 24,3 C 28.0%
5/4/2026 11:40:20 AM 24,3 C 29.0%
5/4/2026 11:33:17 AM 24,2 C 29.0%
5/4/2026 11:26:14 AM 24,0 C 29.0%
5/4/2026 11:19:18 AM 23,5 C 29.0%
5/4/2026 11:12:08 AM 23,5 C 29.0%
5/4/2026 11:05:05 AM 23,5 C 29.0%
5/4/2026 10:58:03 AM 23,4 C 29.0%
5/4/2026 10:51:01 AM 23,1 C 29.0%
5/4/2026 10:43:57 AM 23,1 C 29.0%
5/4/2026 10:36:54 AM 23,3 C 29.0%
5/4/2026 10:29:50 AM 23,3 C 29.0%
5/4/2026 10:22:48 AM 23,5 C 29.0%
5/4/2026 10:15:45 AM 23,5 C 29.0%
5/4/2026 10:08:41 AM 23,6 C 29.0%
5/4/2026 10:01:39 AM 23,5 C 29.0%
5/4/2026 9:54:37 AM 23,2 C 29.0%
5/4/2026 9:47:32 AM 22,8 C 29.0%
5/4/2026 9:40:28 AM 22,8 C 29.0%
5/4/2026 9:33:26 AM 22,7 C 29.0%
5/4/2026 9:26:25 AM 22,5 C 30.0%
5/4/2026 9:19:23 AM 22,4 C 30.0%
5/4/2026 9:12:19 AM 22,2 C 30.0%
5/4/2026 9:05:16 AM 22,3 C 30.0%
5/4/2026 8:58:13 AM 22,2 C 30.0%
5/4/2026 8:51:10 AM 22,0 C 30.0%
5/4/2026 8:44:08 AM 21,7 C 31.0%
5/4/2026 8:37:05 AM 21,3 C 31.0%
5/4/2026 8:30:02 AM 21,1 C 32.0%
5/4/2026 8:23:00 AM 20,8 C 32.0%
5/4/2026 8:15:58 AM 20,4 C 32.0%
5/4/2026 8:08:57 AM 20,0 C 33.0%
5/4/2026 8:01:54 AM 19,7 C 34.0%
5/4/2026 7:54:52 AM 19,3 C 34.0%
5/4/2026 7:47:49 AM 18,7 C 35.0%
5/4/2026 7:40:46 AM 18,1 C 36.0%
5/4/2026 7:33:42 AM 17,0 C 37.0%
5/4/2026 7:26:39 AM 16,1 C 36.0%
5/4/2026 7:19:38 AM 15,9 C 36.0%
5/4/2026 7:12:36 AM 16,2 C 36.0%
5/4/2026 7:05:32 AM 16,2 C 36.0%
5/4/2026 6:58:30 AM 16,2 C 36.0%
5/4/2026 6:51:26 AM 16,3 C 36.0%
5/4/2026 6:44:22 AM 16,3 C 36.0%
5/4/2026 6:37:20 AM 16,2 C 36.0%
5/4/2026 6:30:17 AM 16,2 C 36.0%
5/4/2026 6:23:14 AM 16,3 C 36.0%
5/4/2026 6:16:11 AM 16,2 C 36.0%
5/4/2026 6:09:10 AM 16,3 C 35.0%
5/4/2026 6:02:07 AM 16,4 C 35.0%
5/4/2026 5:55:11 AM 16,4 C 35.0%
5/4/2026 5:48:02 AM 16,5 C 35.0%
5/4/2026 5:41:00 AM 16,5 C 35.0%
5/4/2026 5:34:04 AM 16,6 C 36.0%
5/4/2026 5:26:55 AM 16,6 C 36.0%
5/4/2026 5:19:51 AM 16,7 C 36.0%
5/4/2026 5:12:47 AM 16,7 C 35.0%
5/4/2026 5:05:45 AM 16,8 C 35.0%
5/4/2026 4:58:42 AM 16,8 C 35.0%
5/4/2026 4:51:40 AM 16,9 C 35.0%
5/4/2026 4:44:35 AM 17,0 C 35.0%
5/4/2026 4:37:32 AM 17,0 C 35.0%
5/4/2026 4:30:30 AM 17,1 C 35.0%
5/4/2026 4:23:28 AM 17,2 C 35.0%
5/4/2026 4:16:25 AM 17,2 C 35.0%
5/4/2026 4:09:24 AM 17,3 C 35.0%
5/4/2026 4:02:23 AM 17,4 C 35.0%
5/4/2026 3:55:20 AM 17,5 C 35.0%
5/4/2026 3:48:18 AM 17,5 C 35.0%
5/4/2026 3:41:15 AM 17,6 C 35.0%
5/4/2026 3:34:12 AM 17,7 C 35.0%
5/4/2026 3:27:09 AM 17,8 C 34.0%
5/4/2026 3:20:07 AM 17,8 C 34.0%
5/4/2026 3:13:06 AM 17,9 C 34.0%
5/4/2026 3:06:04 AM 18,0 C 34.0%
5/4/2026 2:59:02 AM 18,0 C 34.0%
5/4/2026 2:52:01 AM 18,1 C 34.0%
5/4/2026 2:44:58 AM 18,2 C 34.0%
5/4/2026 2:38:02 AM 18,3 C 34.0%
5/4/2026 2:30:52 AM 18,4 C 34.0%
5/4/2026 2:23:51 AM 18,5 C 34.0%
5/4/2026 2:16:47 AM 18,6 C 34.0%
5/4/2026 2:09:45 AM 18,7 C 34.0%
5/4/2026 2:02:43 AM 18,8 C 34.0%
5/4/2026 1:55:47 AM 18,9 C 34.0%
5/4/2026 1:48:37 AM 19,0 C 34.0%
5/4/2026 1:41:35 AM 19,0 C 34.0%
5/4/2026 1:34:34 AM 19,2 C 34.0%
5/4/2026 1:27:30 AM 19,2 C 34.0%
5/4/2026 1:20:30 AM 19,3 C 34.0%
5/4/2026 1:13:28 AM 19,4 C 34.0%
5/4/2026 1:06:25 AM 19,5 C 34.0%
5/4/2026 12:59:21 AM 19,6 C 34.0%
5/4/2026 12:52:19 AM 19,8 C 34.0%
5/4/2026 12:45:18 AM 19,9 C 33.0%
5/4/2026 12:38:16 AM 20,1 C 33.0%
5/4/2026 12:31:12 AM 20,2 C 33.0%
5/4/2026 12:24:10 AM 20,4 C 33.0%
5/4/2026 12:17:05 AM 20,5 C 33.0%
5/4/2026 12:10:02 AM 20,7 C 33.0%
5/4/2026 12:02:59 AM 20,8 C 32.0%